Weather History for KONZ - October, 2013

Change the Weather History Date:

Friday, October 4, 2013

  Actual Average (KDTW) Record (KDTW)
Temperature  
Mean Temperature 72 °F 57 °F  
Max Temperature 77 °F 66 °F 89 °F (1951)
Min Temperature 66 °F 47 °F 32 °F (1989)
Degree Days  
Heating Degree Days 0 9  
Month to date heating degree days 34  
Since 1 July heating degree days 148  
Cooling Degree Days 8 1  
Month to date cooling degree days 4  
Year to date cooling degree days 799  
Growing Degree Days 22 (Base 50)    
Moisture  
Dew Point 66 °F    
Average Humidity 82    
Maximum Humidity 94    
Minimum Humidity 69    
Precipitation  
Precipitation 0.00 in 0.08 in 1.06 in (2000)
Month to date precipitation 0.35  
Year to date precipitation 26.05  
Snow  
Snow 0.00 in 0.00 in 0.00 in ()
Month to date snowfall 0.0  
Since 1 July snowfall 0.0  
Since 1 September snowfall 0.0  
Snow Depth -    
Sea Level Pressure  
Sea Level Pressure 30.00 in    
Wind  
Wind Speed 7 mph (SSW)    
Max Wind Speed 14 mph    
Max Gust Speed -    
Visibility 10 miles    
Events Rain    
T = Trace of Precipitation, MM = Missing Value Source: NWS Daily Summary

Daily Weather History Graph

Daily Weather History Graph

Search for Another Location

Airport or City:

Trip Planner

Search our weather history database for the weather conditions in past years. The results will help you decide how hot, cold, wet, or windy it might be!

Date:

Astronomy

Oct. 04, 2013 Rise Set
Actual Time 7:33 AM EDT 7:08 PM EDT
Civil Twilight 7:05 AM EDT 7:36 PM EDT
Nautical Twilight 6:32 AM EDT 8:08 PM EDT
Astronomical Twilight 6:00 AM EDT 8:41 PM EDT
Moon 7:07 AM EDT 6:49 PM EDT
Length of Visible Light 12h 31m
Length of Day
11h 35m
Waning Crescent, 0% of the Moon is Illuminated
Oct 4
Waning Crescent
Oct 4
New
Oct 11
First Quarter
Oct 18
Full
Oct 26
Last Quarter

Hourly Weather History & Observations

Time (EDT) Temp. Dew Point Humidity Pressure Visibility Wind Dir Wind Speed Gust Speed Precip Events Conditions
12:34 AM 69.8 °F 66.2 °F 88% 29.97 in 7.0 mi SSW 6.9 mph - N/A   Scattered Clouds
12:54 AM 69.8 °F 64.4 °F 83% 29.96 in 10.0 mi SSW 8.1 mph - N/A   Scattered Clouds
1:14 AM 69.8 °F 64.4 °F 83% 29.96 in 10.0 mi SSW 8.1 mph - N/A   Clear
1:34 AM 69.8 °F 64.4 °F 83% 29.96 in 10.0 mi SSW 8.1 mph - N/A   Clear
1:54 AM 69.8 °F 64.4 °F 83% 29.97 in 10.0 mi SSW 10.4 mph - N/A   Clear
2:14 AM 71.6 °F 64.4 °F 78% 29.97 in 10.0 mi SSW 9.2 mph - N/A   Clear
2:34 AM 71.6 °F 64.4 °F 78% 29.97 in 10.0 mi SW 6.9 mph - N/A   Clear
2:54 AM 69.8 °F 64.4 °F 83% 29.97 in 10.0 mi SW 5.8 mph - N/A   Clear
3:15 AM 69.8 °F 64.4 °F 83% 29.97 in 10.0 mi SSW 6.9 mph - N/A   Scattered Clouds
3:34 AM 69.8 °F 64.4 °F 83% 29.97 in 10.0 mi SSW 8.1 mph - N/A   Scattered Clouds
3:54 AM 69.8 °F 64.4 °F 83% 29.96 in 10.0 mi SSW 8.1 mph - N/A   Scattered Clouds
4:14 AM 69.8 °F 64.4 °F 83% 29.96 in 10.0 mi SSW 8.1 mph - N/A   Clear
4:34 AM 69.8 °F 64.4 °F 83% 29.96 in 7.0 mi South 5.8 mph - N/A   Clear
4:54 AM 69.8 °F 64.4 °F 83% 29.97 in 10.0 mi SSW 5.8 mph - N/A   Clear
5:14 AM 69.8 °F 64.4 °F 83% 29.96 in 10.0 mi SSW 9.2 mph - N/A   Clear
5:34 AM 69.8 °F 64.4 °F 83% 29.97 in 10.0 mi SSW 6.9 mph - N/A   Clear
5:54 AM 69.8 °F 64.4 °F 83% 29.96 in 10.0 mi SSW 4.6 mph - N/A   Clear
6:14 AM 69.8 °F 64.4 °F 83% 29.97 in 10.0 mi SSW 6.9 mph - N/A   Clear
6:34 AM 69.8 °F 64.4 °F 83% 29.98 in 10.0 mi SW 4.6 mph - N/A   Scattered Clouds
6:54 AM 69.8 °F 64.4 °F 83% 29.98 in 10.0 mi SSW 4.6 mph - N/A   Mostly Cloudy
7:14 AM 69.8 °F 64.4 °F 83% 29.99 in 10.0 mi SW 6.9 mph - N/A Rain Light Rain
7:34 AM 69.8 °F 64.4 °F 83% 29.99 in 10.0 mi SW 5.8 mph - N/A   Scattered Clouds
7:54 AM 69.8 °F 64.4 °F 83% 30.00 in 10.0 mi SW 4.6 mph - N/A   Clear
8:14 AM 69.8 °F 64.4 °F 83% 30.00 in 10.0 mi WSW 5.8 mph - N/A   Clear
8:34 AM 69.8 °F 64.4 °F 83% 30.01 in 10.0 mi SW 5.8 mph - N/A   Clear
8:54 AM 69.8 °F 64.4 °F 83% 30.01 in 10.0 mi WSW 4.6 mph - N/A   Scattered Clouds
9:14 AM 69.8 °F 64.4 °F 83% 30.02 in 10.0 mi SW 4.6 mph - N/A Rain Light Rain
9:34 AM 69.8 °F 64.4 °F 83% 30.01 in 10.0 mi SW 3.5 mph - N/A Rain Light Rain
9:54 AM 69.8 °F 64.4 °F 83% 30.01 in 10.0 mi WSW 3.5 mph - N/A   Scattered Clouds
10:14 AM 69.8 °F 64.4 °F 83% 30.01 in 10.0 mi WSW 5.8 mph - N/A   Mostly Cloudy
10:34 AM 69.8 °F 64.4 °F 83% 30.02 in 10.0 mi West 3.5 mph - N/A Rain Light Rain
10:54 AM 69.8 °F 64.4 °F 83% 30.02 in 10.0 mi West 4.6 mph - N/A   Mostly Cloudy
11:14 AM 71.6 °F 66.2 °F 83% 30.02 in 10.0 mi WSW 5.8 mph - N/A   Scattered Clouds
11:34 AM 73.4 °F 66.2 °F 78% 30.01 in 10.0 mi WSW 5.8 mph - N/A   Scattered Clouds
11:54 AM 75.2 °F 66.2 °F 73% 30.01 in 10.0 mi West 8.1 mph - N/A   Clear
12:15 PM 75.2 °F 66.2 °F 73% 30.01 in 10.0 mi SW 5.8 mph - N/A   Clear
12:34 PM 75.2 °F 66.2 °F 73% 30.02 in 10.0 mi WSW 6.9 mph - N/A   Scattered Clouds
12:54 PM 77.0 °F 66.2 °F 69% 30.02 in 10.0 mi SSW 6.9 mph - N/A   Scattered Clouds
1:14 PM 75.2 °F 66.2 °F 73% 30.02 in 10.0 mi SSW 5.8 mph - N/A   Clear
1:34 PM 75.2 °F 68.0 °F 78% 30.02 in 7.0 mi South 10.4 mph - N/A   Scattered Clouds
1:54 PM 75.2 °F 68.0 °F 78% 30.01 in 10.0 mi South 12.7 mph - N/A   Scattered Clouds
2:14 PM 75.2 °F 68.0 °F 78% 30.00 in 10.0 mi South 11.5 mph - N/A   Clear
2:34 PM 75.2 °F 68.0 °F 78% 30.00 in 10.0 mi South 13.8 mph - N/A   Clear
2:54 PM 75.2 °F 68.0 °F 78% 29.99 in 10.0 mi South 12.7 mph - N/A   Clear
3:14 PM 75.2 °F 68.0 °F 78% 30.00 in 10.0 mi South 11.5 mph - N/A   Clear
3:34 PM 73.4 °F 66.2 °F 78% 30.00 in 10.0 mi South 10.4 mph - N/A   Clear
3:54 PM 75.2 °F 68.0 °F 78% 29.99 in 10.0 mi South 10.4 mph - N/A   Scattered Clouds
4:14 PM 75.2 °F 68.0 °F 78% 29.99 in 10.0 mi South 10.4 mph - N/A   Scattered Clouds
4:34 PM 73.4 °F 68.0 °F 83% 30.00 in 10.0 mi SSW 10.4 mph - N/A   Clear
4:54 PM 75.2 °F 68.0 °F 78% 29.99 in 10.0 mi SSW 8.1 mph - N/A   Clear
5:14 PM 73.4 °F 68.0 °F 83% 30.00 in 10.0 mi South 6.9 mph - N/A   Clear
5:34 PM 71.6 °F 66.2 °F 83% 30.00 in 10.0 mi South 4.6 mph - N/A   Clear
5:54 PM 71.6 °F 68.0 °F 88% 30.01 in 10.0 mi South 3.5 mph - N/A   Clear
6:14 PM 71.6 °F 66.2 °F 83% 30.00 in 10.0 mi Calm Calm - N/A   Clear
6:34 PM 71.6 °F 66.2 °F 83% 30.01 in 10.0 mi Calm Calm - N/A   Clear
6:54 PM 71.6 °F 66.2 °F 83% 30.00 in 10.0 mi SE 3.5 mph - N/A   Scattered Clouds
7:14 PM 71.6 °F 66.2 °F 83% 30.00 in 10.0 mi SSE 4.6 mph - N/A   Clear
7:34 PM 71.6 °F 66.2 °F 83% 30.01 in 10.0 mi SSE 5.8 mph - N/A   Clear
7:54 PM 71.6 °F 66.2 °F 83% 30.02 in 10.0 mi South 6.9 mph - N/A   Clear
8:14 PM 69.8 °F 66.2 °F 88% 30.02 in 10.0 mi South 3.5 mph - N/A   Clear
8:34 PM 71.6 °F 66.2 °F 83% 30.02 in 10.0 mi South 4.6 mph - N/A   Scattered Clouds
8:54 PM 69.8 °F 66.2 °F 88% 30.02 in 10.0 mi SSW 4.6 mph - N/A   Scattered Clouds
9:14 PM 71.6 °F 66.2 °F 83% 30.01 in 10.0 mi SSW 4.6 mph - N/A   Scattered Clouds
9:34 PM 69.8 °F 66.2 °F 88% 30.02 in 10.0 mi Calm Calm - N/A   Clear
9:54 PM 69.8 °F 66.2 °F 88% 30.01 in 10.0 mi Calm Calm - N/A   Clear
10:14 PM 69.8 °F 64.4 °F 83% 30.01 in 10.0 mi Calm Calm - N/A   Clear
10:34 PM 69.8 °F 64.4 °F 83% 30.01 in 10.0 mi Calm Calm - N/A   Clear
10:54 PM 68.0 °F 64.4 °F 88% 30.03 in 10.0 mi Calm Calm - N/A   Clear
11:14 PM 69.8 °F 64.4 °F 83% 30.03 in 10.0 mi Calm Calm - N/A   Clear
11:34 PM 68.0 °F 64.4 °F 88% 30.03 in 10.0 mi Calm Calm - N/A   Clear
11:54 PM 66.2 °F 64.4 °F 94% 30.03 in 10.0 mi Calm Calm - N/A   Clear